[[{"header":{"parameterUnit":"m.s-1","parameterCategory":1,"la1":30.2991,"la2":30.254,"lo1":-89.0895,"lo2":-89.0444,"dy":0.0017,"dx":0.0017,"nx":28,"ny":28,"refTime":"2024-03-07T03:00:00:Z","depth":0,"parameterNumber":2,"parameterNumberName":"U-component_of_WINDS"},"data":[0,0,0,0,0,0,0,0,0,0,0,0,0,0,0,0,0,0,0,0,0,0,0,0,0,0,0,0,0,0,0,0,0,0,0,0,0,0,0,0,0,0,0,0,0,0,0,0,0,0,0,0,0,0,0,0,0,0,-4.1024,-4.1025,0,-4.1098,-4.1099,-4.11,-4.1049,-4.1047,-4.1045,-4.1043,-4.1117,-4.1121,-4.1125,0,0,0,0,0,0,0,0,0,0,0,0,0,-4.0839,-4.0842,-4.1024,-4.1025,-4.1026,-4.1098,-4.1099,-4.11,-4.105,-4.1047,-4.1044,-4.1042,-4.1115,-4.112,-4.1125,0,0,0,0,0,0,0,0,0,0,0,0,0,-4.0917,-4.0844,-4.1024,-4.101,-4.1009,-4.1098,-4.1099,-4.11,-4.105,-4.1047,-4.1044,-4.104,-4.1114,-4.112,-4.1126,-4.1232,0,0,-4.1144,-4.1147,0,0,0,0,0,0,0,0,-4.0912,-4.0923,-4.1011,-4.1011,-4.101,-4.1061,-4.1061,-4.1144,-4.1051,-4.1035,-4.1043,-4.1039,-4.1101,-4.1108,-4.1129,-4.1235,-4.1238,-4.1145,-4.1149,-4.1151,-4.1153,0,0,0,0,0,0,0,-4.0907,-4.092,-4.1053,-4.1012,-4.1012,-4.0999,-4.1007,-4.1076,-4.1086,-4.1036,-4.1032,-4.1042,-4.11,-4.1123,-4.113,-4.124,-4.1145,-4.115,-4.1154,-4.1156,-4.1437,-4.1441,0,0,0,0,0,0,-4.0903,-4.0916,-4.1051,-4.1056,-4.0952,-4.1005,-4.1014,-4.1048,-4.1085,-4.1087,-4.1045,-4.1039,-4.1114,-4.1123,-4.1133,-4.1259,-4.1151,-4.1157,-4.116,-4.1433,-4.1438,-4.1442,0,0,0,0,0,0,-4.0899,-4.0916,-4.1048,-4.0985,-4.1001,-4.1012,-4.1052,-4.1052,-4.1075,-4.1092,-4.1093,-4.1067,-4.1112,-4.1124,-4.1208,-4.1261,-4.116,-4.1165,-4.1429,-4.1435,-4.144,-4.1513,0,0,0,0,0,0,-4.0894,-4.0914,-4.0955,-4.0986,-4.1004,-4.1122,-4.1055,-4.1055,-4.1086,-4.1079,-4.1113,-4.1115,-4.111,-4.1199,-4.1214,-4.1268,-4.117,-4.1424,-4.1432,-4.1438,-4.1506,-4.1521,-4.1533,0,0,0,0,0,-4.0888,-4.0972,-4.0957,-4.0974,-4.1055,-4.1125,-4.1136,-4.1129,-4.109,-4.1131,-4.1142,-4.1114,-4.1254,-4.1208,-4.1224,-4.1281,-4.1421,-4.1429,-4.1438,-4.15,-4.1518,-4.1533,0,0,0,0,0,0,-4.0946,-4.0976,-4.096,-4.1057,-4.1089,-4.1117,-4.1168,-4.1148,-4.1191,-4.1183,-4.1173,-4.1181,-4.1269,-4.1283,-4.1232,-4.1386,-4.1331,-4.1343,-4.1373,-4.139,-4.1403,-4.1397,-4.1175,0,0,0,0,0,-4.097,-4.1025,-4.1048,-4.1132,-4.1149,-4.1156,-4.1186,-4.1179,-4.1211,-4.1224,-4.1241,-4.1274,-4.1325,-4.1358,-4.1406,-4.1509,-4.1515,-4.1556,-4.157,-4.1581,-4.1591,-4.1646,-4.1664,-4.147,-4.147,-4.147,0,0,-4.1021,-4.1044,-4.1079,-4.1144,-4.1168,-4.1225,-4.1168,-4.123,-4.1271,-4.1233,-4.1313,-4.1328,-4.1363,-4.1457,-4.1499,-4.1471,-4.1646,-4.1592,-4.16,-4.1604,-4.1657,-4.1675,-4.1691,-4.1476,-4.1475,-4.1474,0,0,-4.1141,-4.1165,-4.1237,-4.1263,-4.13,-4.1304,-4.1322,-4.1353,-4.1361,-4.1442,-4.1415,-4.1464,-4.1552,-4.1579,-4.1604,-4.1737,-4.1712,-4.1753,-4.1823,-4.1877,-4.1892,-4.1906,-4.1952,-4.1969,-4.1763,-4.1763,-4.1763,0,-4.1198,-4.1283,-4.1276,-4.1341,-4.137,-4.134,-4.1413,-4.1438,-4.1489,-4.151,-4.1479,-4.159,-4.1612,-4.1711,-4.1744,-4.1765,-4.1785,-4.1748,-4.1891,-4.1904,-4.1917,-4.1961,-4.1978,-4.1768,-4.1767,-4.1767,-4.1766,0,-4.1352,-4.1411,-4.1465,-4.1516,-4.1552,-4.162,-4.1623,-4.1661,-4.1651,-4.1658,-4.1741,-4.1766,-4.1819,-4.1842,-4.1833,-4.1941,-4.1923,-4.1892,-4.1836,-4.194,-4.1981,-4.1998,-4.1774,-4.1773,-4.1771,-4.177,0,0,-4.1508,-4.1556,-4.1576,-4.1599,-4.1639,-4.1685,-4.1752,-4.1804,-4.1836,-4.1873,-4.1929,-4.2006,-4.1977,-4.2006,-4.1999,-4.2047,-4.215,-4.201,-4.2011,-4.2034,-4.227,-4.2292,-4.2312,-4.2135,-4.2139,-4.2141,-4.2267,0,-4.163,-4.1748,-4.1744,-4.1854,-4.1908,-4.1882,-4.194,-4.1971,-4.1981,-4.2028,-4.2039,-4.2093,-4.2052,-4.2069,-4.2116,-4.2128,-4.2197,-4.2119,-4.2186,-4.2188,-4.2176,-4.2333,-4.2356,-4.2473,-4.2283,-4.2286,-4.2288,0,-4.1787,-4.183,-4.1945,-4.1978,-4.2001,-4.2054,-4.2102,-4.2148,-4.2183,-4.2187,-4.222,-4.2206,-4.2274,-4.2219,-4.2312,-4.2259,-4.2287,-4.2297,-4.2302,-4.2306,-4.2243,-4.234,-4.2511,-4.2528,-4.2313,-4.2311,-4.2309,0,-4.1889,-4.1976,-4.2056,-4.2076,-4.2117,-4.2155,-4.2173,-4.2205,-4.2237,-4.2279,-4.23,-4.235,-4.2376,-4.2415,-4.2415,-4.2375,-4.251,-4.2454,-4.2514,-4.2514,-4.2542,-4.254,-4.2717,-4.2563,-4.2563,-4.2562,-4.2562,0,-4.2024,-4.2095,-4.2102,-4.2151,-4.223,-4.2226,-4.2304,-4.2319,-4.2348,-4.24,-4.238,-4.2428,-4.2427,-4.2476,-4.2477,-4.2554,-4.2566,-4.2571,-4.257,-4.2572,-4.2571,-4.2588,-4.2579,-4.2567,-4.2566,-4.2565,-4.2564,0,-4.2149,-4.2157,-4.2242,-4.2275,-4.2284,-4.2341,-4.2368,-4.2415,-4.2424,-4.2489,-4.2504,-4.2518,-4.2575,-4.258,-4.2646,-4.2646,-4.274,-4.2731,-4.2728,-4.2726,-4.2785,-4.2779,-4.2978,-4.3004,-4.2834,-4.2836,-4.2837,0,-4.2234,-4.2288,-4.2327,-4.236,-4.2381,-4.2435,-4.2468,-4.2467,-4.2502,-4.2547,-4.2588,-4.2644,-4.2688,-4.2781,-4.2796,-4.2847,-4.2838,-4.2904,-4.2845,-4.2845,-4.2837,-4.2833,-4.2838,-4.2915,-4.2917,-4.2918,-4.292,0,-4.2383,-4.2385,-4.2433,-4.2484,-4.2524,-4.2563,-4.26,-4.2629,-4.2632,-4.2672,-4.2731,-4.2766,-4.2834,-4.2889,-4.2939,-4.2958,-4.294,-4.2939,-4.2955,-4.2956,-4.2952,-4.2954,-4.2758,-4.2933,-4.2932,-4.2931,-4.293,-4.293,-4.249,-4.2537,-4.2572,-4.2627,-4.2655,-4.269,-4.2736,-4.2751,-4.28,-4.2855,-4.2852,-4.2917,-4.2951,-4.3017,-4.304,-4.309,-4.3068,-4.3092,-4.3097,-4.3103,-4.3108,-4.2946,-4.31,-4.3099,-4.3099,-4.3099,-4.3098,0,-4.2638,-4.2659,-4.271,-4.2762,-4.2806,-4.2786,-4.2826,-4.2864,-4.2921,-4.2955,-4.3,-4.3067,-4.3121,-4.3142,-4.3195,-4.3231,-4.3224,-4.3245,-4.3241,-4.3246,-4.3126,-4.3106,-4.325,-4.325,-4.325,-4.325,-4.325,-4.325,-4.2719,-4.2798,-4.2804,-4.2896,-4.2917,-4.2981,-4.3005,-4.3038,-4.3065,-4.3142,-4.3187,-4.32,-4.3229,-4.3284,-4.3332,-4.3337,-4.3357,-4.3381,-4.3382,-4.327,-4.3254,-4.3239,-4.3221,-4.3386,-4.3386,-4.3497,-4.3498,-4.3499]},{"header":{"parameterUnit":"m.s-1","parameterCategory":1,"la1":30.2991,"la2":30.254,"lo1":-89.0895,"lo2":-89.0444,"dy":0.0017,"dx":0.0017,"nx":28,"ny":28,"refTime":"2024-03-07T03:00:00:Z","depth":0,"parameterNumber":3,"parameterNumberName":"V-component_of_WINDS"},"data":[0,0,0,0,0,0,0,0,0,0,0,0,0,0,0,0,0,0,0,0,0,0,0,0,0,0,0,0,0,0,0,0,0,0,0,0,0,0,0,0,0,0,0,0,0,0,0,0,0,0,0,0,0,0,0,0,0,0,2.9149,2.915,0,2.925,2.9252,2.9253,2.9262,2.9261,2.926,2.9259,2.936,2.9363,2.9367,0,0,0,0,0,0,0,0,0,0,0,0,0,2.8963,2.8966,2.9149,2.9151,2.9152,2.925,2.9252,2.9253,2.9263,2.9261,2.926,2.9259,2.9358,2.9363,2.9367,0,0,0,0,0,0,0,0,0,0,0,0,0,2.9052,2.8968,2.9149,2.9169,2.9171,2.925,2.9252,2.9253,2.9263,2.9261,2.926,2.9258,2.9357,2.9362,2.9368,2.9433,0,0,2.9384,2.9387,0,0,0,0,0,0,0,0,2.9047,2.9059,2.9164,2.9167,2.9171,2.9242,2.9223,2.9313,2.9263,2.9228,2.9259,2.9258,2.9322,2.933,2.9352,2.9437,2.9442,2.9385,2.9388,2.9391,2.9392,0,0,0,0,0,0,0,2.9041,2.9054,2.9189,2.9166,2.917,2.9172,2.9183,2.924,2.9282,2.9231,2.9232,2.9244,2.9323,2.9347,2.9355,2.9443,2.9385,2.939,2.9393,2.9395,2.9589,2.9591,0,0,0,0,0,0,2.9031,2.9049,2.9186,2.9192,2.9104,2.9176,2.9189,2.9221,2.9282,2.929,2.9245,2.9244,2.9338,2.9348,2.9358,2.944,2.9391,2.9396,2.9399,2.9587,2.959,2.9592,0,0,0,0,0,0,2.9027,2.9043,2.9182,2.9121,2.9139,2.9181,2.9217,2.9224,2.9248,2.9293,2.93,2.9262,2.9338,2.9351,2.9415,2.9444,2.9398,2.9403,2.9585,2.9588,2.9591,2.9603,0,0,0,0,0,0,2.9022,2.9042,2.9067,2.9122,2.9142,2.9237,2.9219,2.9227,2.9257,2.9257,2.931,2.9318,2.9337,2.9407,2.942,2.945,2.9407,2.9583,2.9586,2.959,2.96,2.9606,2.9611,0,0,0,0,0,2.9015,2.9065,2.9068,2.9085,2.9175,2.9239,2.9251,2.9273,2.926,2.9286,2.9315,2.9316,2.9438,2.9413,2.9429,2.9461,2.9581,2.9585,2.9589,2.9598,2.9605,2.9611,0,0,0,0,0,0,2.9012,2.9073,2.9077,2.9146,2.9188,2.9241,2.9274,2.928,2.9325,2.9322,2.9347,2.9359,2.9423,2.9448,2.9419,2.9528,2.9508,2.9516,2.9509,2.9516,2.9521,2.9514,2.9412,0,0,0,0,0,2.9019,2.9067,2.9117,2.9174,2.9195,2.9231,2.9259,2.9274,2.9317,2.9334,2.9368,2.9409,2.9457,2.9488,2.9534,2.9604,2.9616,2.9634,2.9639,2.9643,2.9649,2.969,2.9698,2.9606,2.9605,2.9605,0,0,2.9035,2.9074,2.9102,2.9174,2.9208,2.9257,2.9245,2.9297,2.9333,2.9341,2.9405,2.9431,2.9479,2.9547,2.9579,2.957,2.9678,2.9648,2.9651,2.9655,2.9695,2.9704,2.9711,2.9608,2.9608,2.9607,0,0,2.9088,2.9123,2.9175,2.9209,2.9261,2.9285,2.9297,2.935,2.9369,2.9433,2.9441,2.9484,2.9566,2.96,2.9628,2.9698,2.9701,2.9712,2.9739,2.9778,2.9786,2.9792,2.9818,2.9827,2.9718,2.9718,2.9718,0,2.9101,2.9176,2.92,2.9253,2.9284,2.9296,2.9349,2.9381,2.9444,2.9466,2.9456,2.956,2.9593,2.967,2.9687,2.9709,2.9724,2.9706,2.9783,2.979,2.9796,2.9821,2.9831,2.9719,2.9719,2.9719,2.9719,0,2.9189,2.9241,2.9276,2.934,2.9376,2.9428,2.946,2.9493,2.9505,2.953,2.9596,2.9636,2.9692,2.9711,2.9722,2.9791,2.9784,2.9778,2.9759,2.9806,2.983,2.984,2.9721,2.972,2.972,2.972,0,0,2.9243,2.9321,2.9333,2.9363,2.9422,2.9462,2.9515,2.9571,2.96,2.9644,2.9689,2.9759,2.9755,2.9787,2.9802,2.9836,2.989,2.9826,2.9828,2.9838,2.997,2.9974,2.9985,2.9893,2.9895,2.9896,2.9966,0,2.9304,2.94,2.9425,2.9506,2.9555,2.9568,2.9614,2.9655,2.968,2.9725,2.9752,2.9802,2.9792,2.9812,2.9846,2.9876,2.9917,2.9871,2.9935,2.9937,2.9924,2.9997,3.0002,3.0066,2.9975,2.9977,2.9978,0,2.9388,2.9436,2.9523,2.9578,2.9599,2.964,2.9695,2.9737,2.9784,2.98,2.9837,2.9849,2.9905,2.9883,2.9961,2.993,2.9957,2.9976,2.9979,2.9986,2.9961,3.0007,3.0087,3.0097,2.9993,2.9992,2.9991,0,2.942,2.9506,2.957,2.9595,2.9659,2.9689,2.9717,2.9763,2.9795,2.9842,2.9864,2.9917,2.9945,2.9986,3.0012,2.9993,3.0088,3.0068,3.0103,3.0103,3.0123,3.0121,3.0209,3.0139,3.0139,3.0139,3.0138,0,2.9487,2.954,2.9586,2.9625,2.9685,2.9713,2.9771,2.98,2.9841,2.9886,2.9899,2.9941,2.9972,3.0018,3.0039,3.0101,3.0114,3.0128,3.0133,3.0128,3.0126,3.0146,3.0143,3.0141,3.0141,3.014,3.014,0,2.9532,2.9565,2.9636,2.9692,2.9708,2.975,2.9798,2.9836,2.9863,2.992,2.9934,2.9975,3.0031,3.0061,3.0129,3.0143,3.0213,3.0215,3.0198,3.02,3.0234,3.0231,3.0339,3.0355,3.0273,3.0274,3.0275,0,2.9573,2.9615,2.9676,2.9708,2.9737,2.9788,2.9822,2.9851,2.9886,2.9944,2.9976,3.0032,3.0079,3.0167,3.0202,3.0255,3.0259,3.0293,3.0267,3.0261,3.0261,3.0259,3.0264,3.0298,3.0299,3.0299,3.03,0,2.9642,2.9657,2.9706,2.9762,2.9803,2.9848,2.9892,2.9917,2.9953,2.9992,3.005,3.0086,3.0158,3.0214,3.027,3.0298,3.0306,3.0308,3.0319,3.0314,3.0303,3.0311,3.0211,3.0305,3.0305,3.0304,3.0304,3.0304,2.9688,2.9726,2.9776,2.9831,2.9868,2.9909,2.9949,2.9981,3.003,3.0092,3.0106,3.0167,3.0214,3.0291,3.0321,3.0369,3.0362,3.0378,3.0382,3.0386,3.0388,3.0295,3.0379,3.0379,3.0379,3.0379,3.0379,0,2.9759,2.9792,2.9842,2.9905,2.9949,2.9953,3.0003,3.0039,3.0093,3.0137,3.0183,3.025,3.0305,3.0346,3.0402,3.0432,3.0437,3.0446,3.0445,3.0451,3.039,3.0376,3.0442,3.0442,3.0442,3.0442,3.0442,3.0441,2.9801,2.9867,2.9887,2.9972,3.0004,3.0066,3.0094,3.0132,3.0168,3.0243,3.0289,3.0316,3.0359,3.0418,3.0469,3.048,3.05,3.0509,3.052,3.0462,3.0455,3.0449,3.0435,3.0513,3.0513,3.0577,3.0578,3.0578]}]]